Regional Weather Roundup
Issued by NWS Newport/Morehead, NC

Home | Current Version | Previous Version | Text Only | Print | Product List | Glossary On
Versions: 1 2 3 4 5 6 7 8 9 10 11 12 13 14 15 16 17 18 19 20 21 22 23 24 25 26 27 28 29 30 31 32 33 34 35 36 37 38 39 40 41 42 43 44 45 46 47 48 49 50
000
ASUS42 KMHX 120726
RWRMHX
WEATHER ROUNDUP FOR EASTERN NORTH CAROLINA
NATIONAL WEATHER SERVICE NEWPORT/MOREHEAD CITY NC
300 AM EDT WED AUG 12 2020

NOTE: "FAIR" INDICATES FEW OR NO CLOUDS BELOW 12,000 FEET
WITH NO SIGNIFICANT WEATHER AND/OR OBSTRUCTIONS TO VISIBILITY

NCZ015>017-031-032-045>047-102-103-120800-
NORTH COAST

CITY           SKY/WX    TMP DP  RH WIND       PRES   REMARKS
EDENTON        NOT AVBL
ELIZABETH CITY CLEAR     78  77  96 CALM      30.00S
KITTY HAWK     SUNNY     78  75  88 CALM      30.00S
MANTEO         CLEAR     79  75  86 W6        30.02S

$$

NCZ045>047-081-094-103-104-120800-
CENTRAL COAST

CITY           SKY/WX    TMP DP  RH WIND       PRES   REMARKS
FRISCO         CLEAR     82  76  81 W6        30.01S

$$

NCZ095-097-098-100-101-120800-
SOUTHERN COAST

CITY           SKY/WX    TMP DP  RH WIND       PRES   REMARKS
BEAUFORT       CLEAR     82  77  84 SW8       29.99F
CEDAR ISLAND   NOT AVBL
JACKSONVILLE   CLEAR     76  73  91 CALM      29.98F
PINEY ISLAND   MOSUNNY   81  76  84 SW5       30.00S
WILMINGTON     CLEAR     77  74  90 N3        29.98F


$$

NCZ011>013-027>030-043-044-078>080-089-090>093-098-120800-
COASTAL PLAIN

CITY           SKY/WX    TMP DP  RH WIND       PRES   REMARKS
AHOSKIE        NOT AVBL
CLINTON        CLEAR     74  74 100 CALM      29.98F
ELIZABETHTOWN  CLEAR     74  73  96 CALM      29.98F
GOLDSBORO      CLEAR     76  75  99 CALM      29.97F
GREENVILLE     CLEAR     75  73  94 CALM      30.01F
HAVELOCK       CLEAR     78  76  93 CALM      30.00F
KENANSVILLE    CLEAR     73  72  94 CALM      29.99F FOG
KINSTON        CLEAR     74  74  99 CALM      30.00S FOG
NEW BERN       CLEAR     75  74  96 CALM      30.01F
RICHLANDS      CLEAR     72  72 100 CALM      29.99F FOG
ROCKY MOUNT    CLEAR     75  74  96 CALM      29.99F FOG
WASHINGTON     PTCLDY    75  73  96 CALM      30.01S FOG
WHITEVILLE     NOT AVBL

$$

AMZ130-135-150-152-154-156-158-170-250-252-270-ANZ085-086-088-633-658-670-120800-
MARINE OBSERVATIONS

STATION/POSITION TIME  TEMP    WIND        PRES    WAVE   SWELL
                       AIR SEA DIR/SP/G            HT/PER HT/PER
                 (UTC) (F)     (DEG/KT/KT) (MB)    (FT/S) (FT/S)
64 E VA BEACH    0710   79 79  210/  6/  8 1016.1
DUCK             0642   81     230/  7/  9 1015.8
2 E DUCK         0656      73                N/A     1/10
10 NE DUCK       0656      78                N/A     1/10
OREGON INLET     0642   81 86  240/  9/ 10 1016.1
13E OREGON INLT  0656      79                N/A     2/11   2/11
HATTERAS CG      0642   80 83  240/  4/  7 1016.3
DIAMOND BUOY     0710   83 83  230/ 12/ 14   N/A
CAPE LOOKOUT     0700   81     220/  5/  6 1015.9
BEAUFORT LAB     0642   82 86  220/  5/  9 1016.2
30 SE NEW RVR IN 0708   82     240/  8/ 12 1015.3
30 SE NEW RVR IN 0656      82                N/A     2/ 4
27 SE WRIGHTSVLE 0708   81 83  240/  4/  8 1015.4
5 SE WRIGHTSVLE  0708   79 83  260/  4/  8 1014.9
27 SE WRIGHTSVL  0708   81 83  240/  4/  8 1015.4
FRYING PAN BUOY  0710   81 83  200/  4/  6 1014.4
225 S CAPE HAT   0710   84 86  220/  8/ 12 1016.7
41 SE CHARLESTON 0710   83 84  230/ 10/ 12 1014.5

$$




USA.gov is the U.S. government's official web portal to all federal, state and local government web resources and services.